| time (UTC) | temp C | wind direction | speed KPH | gust KPH | rain 1hr cm | rain 24hr cm | rain mn cm | humidity % | barometer mb |
| 20260507151536 | 10 | 248 | 0.0 | 0.0 | 0.00 | 0.33 | 0.13 | 89 | 1009.3 |
| 20260507150023 | 10 | 248 | 0.0 | 0.0 | 0.00 | 0.46 | 0.13 | 89 | 1009.4 |
| 20260507144516 | 10 | 248 | 0.0 | 0.0 | 0.00 | 0.46 | 0.13 | 90 | 1009.7 |
| 20260507143011 | 10 | 248 | 0.0 | 0.0 | 0.00 | 0.46 | 0.13 | 89 | 1009.8 |
| 20260507141615 | 10 | 243 | 0.0 | 0.0 | 0.00 | 0.46 | 0.13 | 89 | 1009.9 |
| 20260507140045 | 10 | 242 | 0.0 | 0.0 | 0.00 | 0.61 | 0.13 | 89 | 1010.0 |
| 20260507134547 | 10 | 242 | 0.0 | 0.0 | 0.00 | 0.61 | 0.13 | 89 | 1010.1 |
| 20260507133039 | 10 | 242 | 0.0 | 1.6 | 0.00 | 0.61 | 0.13 | 90 | 1010.1 |
| 20260507131542 | 10 | 242 | 0.0 | 0.0 | 0.00 | 0.61 | 0.13 | 90 | 1010.0 |
| 20260507130036 | 11 | 242 | 0.0 | 0.0 | 0.00 | 0.64 | 0.13 | 90 | 1009.7 |
| 20260507124532 | 11 | 242 | 0.0 | 0.0 | 0.03 | 0.64 | 0.13 | 90 | 1010.1 |
| 20260507123022 | 11 | 242 | 0.0 | 0.0 | 0.03 | 0.64 | 0.13 | 90 | 1010.2 |
| 20260507121513 | 11 | 242 | 0.0 | 0.0 | 0.03 | 0.64 | 0.13 | 90 | 1009.8 |
| 20260507120009 | 11 | 242 | 0.0 | 0.0 | 0.03 | 0.64 | 0.13 | 90 | 1009.9 |
| 20260507114558 | 12 | 244 | 0.0 | 0.0 | 0.00 | 0.61 | 0.10 | 90 | 1009.5 |
| 20260507113050 | 12 | 244 | 0.0 | 0.0 | 0.00 | 0.61 | 0.10 | 90 | 1009.4 |
| 20260507111544 | 12 | 244 | 0.0 | 0.0 | 0.00 | 0.61 | 0.10 | 90 | 1009.4 |
| 20260507110039 | 12 | 244 | 0.0 | 0.0 | 0.00 | 0.61 | 0.10 | 90 | 1009.3 |
| 20260507104530 | 12 | 244 | 0.0 | 0.0 | 0.00 | 0.61 | 0.10 | 90 | 1009.2 |
| 20260507103012 | 12 | 244 | 0.0 | 0.0 | 0.00 | 0.61 | 0.10 | 90 | 1009.1 |
| 20260507101513 | 12 | 244 | 0.0 | 0.0 | 0.00 | 0.61 | 0.10 | 90 | 1009.0 |
| 20260507100044 | 12 | 244 | 0.0 | 0.0 | 0.03 | 0.61 | 0.10 | 90 | 1008.8 |
| 20260507094542 | 12 | 244 | 0.0 | 0.0 | 0.03 | 0.61 | 0.10 | 90 | 1008.8 |
| 20260507093035 | 12 | 244 | 0.0 | 0.0 | 0.03 | 0.61 | 0.10 | 89 | 1008.8 |
| 20260507091529 | 12 | 244 | 0.0 | 0.0 | 0.03 | 0.61 | 0.10 | 89 | 1008.4 |
| 20260507090013 | 12 | 244 | 0.0 | 0.0 | 0.00 | 0.58 | 0.08 | 89 | 1008.7 |
| 20260507084556 | 12 | 244 | 0.0 | 0.0 | 0.00 | 0.58 | 0.08 | 89 | 1008.5 |
| 20260507083044 | 12 | 244 | 0.0 | 1.6 | 0.03 | 0.58 | 0.08 | 89 | 1008.7 |
| 20260507081534 | 12 | 244 | 0.0 | 0.0 | 0.03 | 0.58 | 0.08 | 89 | 1008.3 |
| 20260507080025 | 12 | 244 | 0.0 | 0.0 | 0.03 | 0.58 | 0.08 | 90 | 1007.9 |
| 20260507074520 | 12 | 244 | 0.0 | 0.0 | 0.03 | 0.58 | 0.08 | 89 | 1007.8 |
| 20260507073010 | 12 | 244 | 0.0 | 0.0 | 0.00 | 0.56 | 0.05 | 89 | 1007.6 |
| 20260507071510 | 13 | 244 | 0.0 | 0.0 | 0.03 | 0.56 | 0.05 | 89 | 1007.7 |
| 20260507070059 | 13 | 244 | 0.0 | 0.0 | 0.03 | 0.56 | 0.05 | 89 | 1007.7 |
| 20260507064551 | 13 | 244 | 0.0 | 0.0 | 0.03 | 0.56 | 0.05 | 88 | 1007.7 |
| 20260507063047 | 13 | 244 | 0.0 | 0.0 | 0.03 | 0.56 | 0.05 | 88 | 1007.8 |
| 20260507061542 | 13 | 244 | 0.0 | 0.0 | 0.03 | 0.53 | 0.03 | 87 | 1007.5 |
| 20260507060047 | 13 | 244 | 0.0 | 0.0 | 0.03 | 0.53 | 0.03 | 86 | 1007.6 |
| 20260507054512 | 13 | 244 | 0.0 | 0.0 | 0.03 | 0.53 | 0.03 | 85 | 1007.5 |
| 20260507053008 | 14 | 244 | 0.0 | 0.0 | 0.03 | 0.53 | 0.03 | 85 | 1007.8 |
| 20260507051508 | 14 | 244 | 0.0 | 0.0 | 0.00 | 0.51 | 0.00 | 83 | 1007.3 |
| 20260507050047 | 15 | 244 | 0.0 | 0.0 | 0.00 | 0.51 | 0.00 | 82 | 1007.9 |
| 20260507044556 | 15 | 244 | 0.0 | 0.0 | 0.00 | 0.51 | 0.51 | 81 | 1007.9 |
| 20260507043041 | 16 | 223 | 0.0 | 1.6 | 0.00 | 0.51 | 0.51 | 81 | 1007.8 |
| 20260507041535 | 16 | 271 | 0.0 | 0.0 | 0.00 | 0.51 | 0.51 | 80 | 1007.9 |
| 20260507040031 | 16 | 271 | 0.0 | 0.0 | 0.00 | 0.51 | 0.51 | 79 | 1007.5 |
| 20260507034516 | 17 | 272 | 0.0 | 0.0 | 0.00 | 0.51 | 0.51 | 78 | 1007.2 |
| 20260507033045 | 17 | 271 | 0.0 | 3.2 | 0.00 | 0.51 | 0.51 | 77 | 1007.2 |
| 20260507031541 | 17 | 266 | 0.0 | 11.3 | 0.00 | 0.51 | 0.51 | 77 | 1007.2 |
| 20260507030032 | 17 | 265 | 0.0 | 0.0 | 0.00 | 0.51 | 0.51 | 77 | 1006.7 |
| 20260507024503 | 17 | 265 | 0.0 | 3.2 | 0.00 | 0.51 | 0.51 | 77 | 1007.0 |
| 20260507023059 | 17 | 270 | 0.0 | 0.0 | 0.00 | 0.51 | 0.51 | 79 | 1006.7 |
| 20260507023002 | 17 | 272 | 0.0 | 1.6 | 0.00 | 0.51 | 0.51 | 80 | 1006.7 |
| 20260507021541 | 18 | 271 | 0.0 | 0.0 | 0.00 | 0.51 | 0.51 | 82 | 1006.6 |
| 20260507020035 | 18 | 275 | 0.0 | 3.2 | 0.00 | 0.51 | 0.51 | 83 | 1006.4 |
| 20260507014559 | 18 | 236 | 0.0 | 0.0 | 0.00 | 0.51 | 0.51 | 84 | 1006.2 |
| 20260507013057 | 18 | 236 | 0.0 | 3.2 | 0.00 | 0.51 | 0.51 | 85 | 1006.6 |
| 20260507011545 | 19 | 88 | 0.0 | 0.0 | 0.00 | 0.51 | 0.51 | 84 | 1006.4 |
| 20260507010020 | 19 | 88 | 0.0 | 0.0 | 0.00 | 0.51 | 0.51 | 83 | 1006.2 |
| 20260507004506 | 19 | 88 | 0.0 | 0.0 | 0.00 | 0.51 | 0.51 | 83 | 1006.3 |
| 20260507003042 | 19 | 88 | 0.0 | 0.0 | 0.00 | 0.51 | 0.51 | 81 | 1006.1 |
| 20260507001542 | 20 | 88 | 0.0 | 0.0 | 0.00 | 0.51 | 0.51 | 80 | 1006.1 |
| 20260507000034 | 20 | 88 | 0.0 | 0.0 | 0.00 | 0.51 | 0.51 | 81 | 1006.1 |
| 20260506234526 | 20 | 88 | 0.0 | 0.0 | 0.00 | 0.51 | 0.51 | 80 | 1005.9 |
| 20260506233023 | 20 | 88 | 0.0 | 0.0 | 0.00 | 0.51 | 0.51 | 79 | 1005.6 |
| 20260506231511 | 20 | 88 | 0.0 | 1.6 | 0.00 | 0.51 | 0.51 | 79 | 1005.3 |
| 20260506230040 | 20 | 88 | 0.0 | 0.0 | 0.00 | 0.51 | 0.51 | 79 | 1005.3 |
| 20260506224542 | 21 | 89 | 0.0 | 0.0 | 0.00 | 0.51 | 0.51 | 79 | 1005.1 |
| 20260506223034 | 21 | 88 | 0.0 | 3.2 | 0.00 | 0.51 | 0.51 | 78 | 1005.2 |
| 20260506221526 | 21 | 95 | 0.0 | 0.0 | 0.00 | 0.51 | 0.51 | 78 | 1005.0 |
| 20260506220105 | 21 | 148 | 0.0 | 3.2 | 0.00 | 0.51 | 0.51 | 78 | 1005.0 |
| 20260506220009 | 21 | 148 | 0.0 | 3.2 | 0.00 | 0.51 | 0.51 | 78 | 1005.0 |
| 20260506214613 | 21 | 275 | 0.0 | 8.0 | 0.00 | 0.51 | 0.51 | 78 | 1005.0 |
| 20260506214504 | 21 | 275 | 0.0 | 8.0 | 0.00 | 0.51 | 0.51 | 78 | 1005.0 |
| 20260506213056 | 21 | 113 | 0.0 | 0.0 | 0.00 | 0.51 | 0.51 | 79 | 1005.0 |
| 20260506211546 | 21 | 108 | 0.0 | 1.6 | 0.00 | 0.51 | 0.51 | 80 | 1004.9 |
| 20260506210042 | 20 | 111 | 0.0 | 0.0 | 0.00 | 0.51 | 0.51 | 79 | 1004.8 |
| 20260506204518 | 20 | 108 | 0.0 | 1.6 | 0.00 | 0.51 | 0.51 | 79 | 1004.6 |
| 20260506203016 | 20 | 34 | 0.0 | 1.6 | 0.00 | 0.51 | 0.51 | 80 | 1004.4 |
| 20260506201600 | 20 | 121 | 0.0 | 1.6 | 0.00 | 0.51 | 0.51 | 80 | 1004.6 |
| 20260506201502 | 20 | 121 | 0.0 | 1.6 | 0.00 | 0.51 | 0.51 | 81 | 1004.6 |
| 20260506200058 | 20 | 135 | 0.0 | 11.3 | 0.00 | 0.51 | 0.51 | 81 | 1004.8 |
| 20260506194553 | 20 | 201 | 0.0 | 3.2 | 0.00 | 0.51 | 0.51 | 81 | 1004.8 |
| 20260506193029 | 20 | 106 | 0.0 | 11.3 | 0.00 | 0.51 | 0.51 | 80 | 1004.8 |
| 20260506191528 | 20 | 124 | 0.0 | 6.4 | 0.00 | 0.51 | 0.51 | 81 | 1004.8 |
| 20260506190005 | 19 | 311 | 0.0 | 1.6 | 0.00 | 0.51 | 0.51 | 84 | 1004.8 |
| 20260506184545 | 18 | 299 | 0.0 | 3.2 | 0.00 | 0.51 | 0.51 | 85 | 1005.3 |
| 20260506183043 | 18 | 84 | 0.0 | 3.2 | 0.00 | 0.51 | 0.51 | 85 | 1005.3 |
| 20260506181543 | 18 | 110 | 0.0 | 6.4 | 0.03 | 0.51 | 0.51 | 85 | 1005.5 |
| 20260506180041 | 18 | 286 | 0.0 | 8.0 | 0.03 | 0.51 | 0.51 | 87 | 1005.6 |
| 20260506174536 | 18 | 300 | 0.0 | 14.5 | 0.05 | 0.51 | 0.51 | 88 | 1005.6 |
| 20260506173030 | 17 | 342 | 0.0 | 3.2 | 0.05 | 0.51 | 0.51 | 91 | 1005.6 |
| 20260506171523 | 17 | 83 | 0.0 | 6.4 | 0.05 | 0.48 | 0.48 | 91 | 1005.8 |
| 20260506170016 | 17 | 44 | 0.0 | 8.0 | 0.08 | 0.48 | 0.48 | 92 | 1005.9 |
| 20260506164505 | 17 | 305 | 0.0 | 6.4 | 0.08 | 0.46 | 0.46 | 93 | 1005.8 |
| 20260506163044 | 17 | 83 | 0.0 | 9.7 | 0.10 | 0.46 | 0.46 | 94 | 1005.8 |
| 20260506161535 | 16 | 336 | 0.0 | 6.4 | 0.10 | 0.43 | 0.43 | 94 | 1005.8 |
| 20260506160003 | 16 | 110 | 0.0 | 3.2 | 0.10 | 0.41 | 0.41 | 94 | 1005.8 |